Simultaneous Nadir Overpasses (SNOs) Predictions

Prediction of SNOs between GOES-16 and TERRA Satellite Orbit:

Table of predicted SNOs for the next 14.0 days since TLE Epoch: 8/17/2024
Index Date Time (GOES-16) GOES-16 Lat,Lon TERRA Lat,Lon Distance(km) Time Diff (sec)
1 08/18/2024 02:33:03 0.03, -75.20 0.68, -72.22 340.12 80
2 08/18/2024 14:50:13 -0.03, -75.21 0.34, -77.04 207.42 80
3 08/20/2024 14:35:11 -0.04, -75.22 -0.58, -72.77 279.18 80
4 08/21/2024 02:55:09 0.04, -75.22 -0.44, -77.63 273.20 80
5 08/23/2024 02:34:46 0.04, -75.24 0.43, -73.35 214.84 80
6 08/23/2024 14:54:35 -0.04, -75.25 0.55, -78.18 331.95 80
7 08/25/2024 14:39:30 -0.03, -75.28 -0.33, -73.90 157.17 80
8 08/26/2024 02:59:28 0.03, -75.28 -0.72, -78.75 394.60 80
9 08/28/2024 02:39:03 0.03, -75.31 0.23, -74.48 95.36 80
10 08/28/2024 14:58:51 -0.03, -75.32 0.82, -79.28 450.99 80
11 08/30/2024 14:43:44 -0.02, -75.36 -0.08, -75.00 40.46 80
